Temperature
19 19 20 20 17 15 17 19 20 21 23 24 24 24 22 23 23 22 21 20 19 18 17 16 16 15 15 14 14 14 13 13 13 11 12 12 11 11 11 11 11 11 11 11 11 11 11 11 12
19 20 20 19 15 16 17 19 21 21 24 24 24 23 22 22 22 22 22 21 20 18 17 16 16 15 14 14 14 13 13 13 13 12 12 12 12 11 11 11 10 10 11 13 13 11 11 11 11
19 20 19 15 16 16 18 20 21 23 24 24 24 23 23 22 22 22 22 22 20 18 17 16 16 15 14 14 14 13 13 13 12 12 12 12 12 11 11 11 11 12 13 14 13 12 12 12 11
19 19 18 15 17 17 18 19 20 22 24 24 24 22 22 22 22 22 22 22 20 19 17 16 16 15 15 14 14 13 13 13 12 12 12 12 12 12 12 12 13 13 13 13 13 13 13 13 13
19 18 14 15 17 18 18 21 22 22 23 24 24 21 22 22 22 22 22 22 21 19 18 17 16 15 15 14 14 13 13 13 12 12 12 12 12 12 12 13 13 13 13 13 13 14 13 14 14
18 15 14 15 16 17 18 22 22 22 23 24 24 21 22 22 22 22 22 21 20 19 18 16 16 15 15 14 14 14 14 14 13 12 12 12 12 12 13 13 13 12 12 13 13 13 14 14 14
17 13 14 16 15 16 19 21 21 21 22 24 24 21 21 23 22 22 21 20 19 18 17 17 16 15 15 15 15 15 15 14 13 13 13 13 13 13 13 13 12 12 12 12 13 13 13 13 14
18 14 16 15 16 17 19 21 22 22 23 24 24 22 22 24 22 22 21 20 19 18 17 17 16 16 16 15 15 16 16 15 14 14 14 14 14 14 14 13 13 13 13 12 12 12 13 13 14
18 13 14 15 17 17 19 19 22 23 23 24 24 24 24 24 23 22 21 20 20 19 18 17 17 17 16 16 17 17 17 16 15 15 15 15 15 15 15 14 14 14 14 13 13 13 13 13 14
17 13 14 16 17 17 18 19 20 21 21 23 23 24 24 23 23 23 22 22 22 21 20 19 18 18 17 17 17 17 17 17 17 16 16 16 16 16 15 15 15 15 15 15 15 14 14 14 14
16 14 15 17 19 18 18 20 21 20 20 22 23 23 23 23 23 23 23 23 23 21 20 20 19 18 17 17 17 17 17 17 17 17 17 16 16 16 16 16 16 16 16 16 16 15 15 14 14
15 16 17 18 19 18 19 20 20 20 21 22 22 23 23 23 23 23 23 23 22 20 20 19 19 18 17 18 18 17 17 17 17 17 17 17 17 17 17 17 17 16 16 16 16 15 15 15 14
15 16 18 18 19 19 19 19 19 20 22 23 23 23 24 23 23 23 23 22 21 21 21 19 18 18 18 18 18 17 17 17 17 17 17 17 17 17 17 17 17 17 16 16 16 16 15 15 15
16 17 17 18 19 19 19 19 19 21 22 22 22 23 23 23 23 23 23 23 22 22 22 20 19 19 18 18 18 17 17 17 17 18 18 18 18 18 17 17 17 17 16 16 16 15 15 15 15
18 16 16 17 18 19 19 18 18 22 22 22 22 22 23 23 23 22 22 22 22 21 21 20 20 19 19 19 19 18 17 17 18 18 18 18 18 18 17 17 17 17 15 15 14 14 14 14 14
17 16 15 16 17 18 18 16 18 22 21 21 22 21 22 22 21 20 20 21 21 21 21 21 20 20 19 19 19 19 18 18 18 18 18 17 17 16 16 15 15 15 14 14 13 13 13 13 13
15 14 14 15 16 17 16 16 18 21 21 21 20 20 20 20 20 20 20 21 21 22 21 21 20 20 19 19 19 19 18 18 18 18 17 17 16 15 15 14 14 14 14 14 13 13 13 13 13
14 14 14 14 16 16 15 16 17 20 20 19 18 18 18 19 19 20 20 21 21 21 21 21 20 19 19 18 18 18 18 18 18 18 18 17 17 16 15 15 15 14 14 13 13 12 12 12 12
14 15 14 15 16 16 16 17 17 17 17 16 17 17 17 17 18 19 19 19 19 19 20 20 19 19 19 18 18 18 18 18 18 18 17 16 15 15 14 14 14 13 13 13 13 12 12 12 11
14 14 14 15 18 18 17 17 17 17 16 17 17 17 17 17 18 18 19 19 19 19 19 19 19 19 19 18 18 17 17 17 16 16 15 15 15 14 14 13 13 13 13 13 13 12 12 12 12
14 13 14 16 16 17 17 16 17 16 16 16 17 17 17 17 17 17 18 18 18 19 19 19 18 18 18 18 17 17 16 16 15 15 15 14 14 13 13 13 13 13 13 13 13 13 12 12 12
14 15 16 17 15 14 16 14 16 15 15 15 15 16 16 16 16 16 17 17 17 17 17 17 17 17 17 17 16 16 15 15 14 14 14 14 13 13 13 13 13 13 13 13 13 13 13 13 12
15 17 17 17 16 14 14 14 14 15 14 14 14 16 16 16 15 15 16 16 16 16 16 16 16 16 15 15 15 14 14 14 13 13 13 13 13 12 12 12 12 12 12 12 12 12 12 12 12
16 15 15 12 13 13 14 13 14 14 14 14 13 15 16 15 15 15 15 15 15 15 15 15 15 14 14 14 14 13 13 13 13 13 13 12 12 12 12 12 12 12 12 11 11 12 11 11 11
15 13 13 13 12 13 14 14 15 14 14 14 13 15 16 16 16 15 15 15 15 14 14 14 13 13 13 13 13 12 12 12 12 11 11 11 11 11 11 11 11 11 11 11 11 11 11 11 11
14 13 13 13 13 13 15 14 15 14 15 16 16 16 16 16 16 16 15 15 14 13 13 13 13 12 12 12 12 12 12 12 11 11 11 10 10 10 10 10 10 11 11 11 11 11 10 10 10
13 13 13 13 14 14 14 14 15 12 12 13 14 15 15 16 16 15 15 14 13 12 12 12 12 12 12 12 12 11 11 11 10 10 10 10 9 9 9 9 9 9 9 9 9 9 9 9 9
15 13 12 13 14 14 14 15 15 14 13 12 12 14 15 16 15 14 13 12 12 12 11 11 11 11 11 11 11 10 10 10 10 9 9 9 8 8 8 8 8 8 8 8 7 8 8 8 8
14 14 13 12 12 13 14 14 14 14 13 12 12 15 16 15 14 13 12 12 11 11 11 11 11 11 11 11 10 10 10 9 9 8 8 8 7 7 7 7 7 6 6 6 6 6 6 6 6
14 14 13 13 13 12 12 13 14 13 13 13 14 15 15 15 14 12 12 11 11 11 10 10 10 10 10 10 9 9 9 8 8 8 7 7 7 6 6 6 6 5 5 5 4 4 4 4 4
Wind_Speed
15 11 3 4 5 4 3 6 4 8 6 2 2 6 8 4 2 4 1 8 11 12 15 17 16 18 17 15 12 11 10 9 7 5 7 9 8 6 6 5 4 5 5 4 1 1 5 4 6
8 5 6 5 5 1 5 6 5 6 4 2 3 5 4 1 1 5 4 8 14 13 15 15 17 19 17 15 13 11 10 8 7 6 7 9 9 7 6 5 4 4 5 4 3 0 4 4 4
7 5 5 4 3 5 6 5 5 6 5 3 3 4 3 3 3 6 6 12 12 11 15 17 20 19 17 15 14 11 9 7 7 8 7 9 9 9 7 5 5 4 4 4 3 0 2 3 2
5 5 5 4 3 6 6 10 10 7 5 1 5 4 1 3 4 6 7 13 13 11 15 19 21 20 19 17 15 12 11 9 7 6 6 8 9 9 8 7 7 6 5 4 4 3 2 3 1
5 5 5 3 6 6 7 9 11 7 4 3 6 6 3 5 0 6 9 12 13 10 13 19 22 21 20 18 16 14 12 10 9 7 5 5 8 9 8 7 6 6 6 5 5 6 7 6 5
5 5 4 4 7 8 8 8 9 8 5 4 8 7 4 1 5 7 8 10 12 11 12 17 22 21 20 19 17 15 13 12 12 10 7 6 6 7 7 7 7 8 8 7 7 8 9 9 9
4 4 2 5 6 7 6 10 7 7 4 6 9 7 3 5 8 8 7 8 9 9 10 11 15 18 19 19 17 16 14 13 13 12 10 8 6 6 8 8 8 9 9 9 9 9 10 12 12
5 4 2 4 5 6 7 12 7 5 4 2 7 8 7 8 9 8 7 7 8 9 11 9 12 15 15 16 17 16 14 13 12 13 12 10 8 7 8 8 9 11 11 11 11 11 12 13 14
4 4 4 5 5 6 9 9 8 7 5 3 2 3 4 8 10 8 6 5 8 10 9 10 10 11 14 14 15 16 16 14 12 13 15 12 10 9 10 11 12 13 13 13 13 14 14 14 15
4 4 8 6 5 6 9 9 8 9 9 3 3 4 3 10 11 11 10 10 11 12 10 9 11 10 11 13 12 13 13 13 12 12 14 12 11 12 12 15 16 16 17 17 16 16 15 15 12
7 8 7 8 9 7 7 9 5 5 7 5 6 7 7 8 10 11 12 11 11 9 10 13 12 9 9 7 8 9 10 11 12 14 14 13 12 12 12 11 14 16 17 14 14 14 12 11 9
6 8 8 8 8 6 7 7 7 6 10 9 10 7 10 11 13 15 15 11 7 8 9 10 13 11 9 8 6 7 6 7 8 12 15 12 6 6 7 8 11 12 11 9 9 7 9 10 12
7 7 9 12 13 9 8 9 8 9 13 10 8 9 14 14 14 13 11 10 10 11 12 11 13 14 11 9 7 7 7 8 11 13 15 14 7 8 5 6 9 10 11 8 6 6 7 8 8
7 6 6 9 9 5 7 10 7 11 10 8 6 10 13 15 16 12 13 13 14 14 14 13 14 15 13 12 10 10 9 10 11 12 15 17 14 8 9 9 9 9 10 9 8 9 9 9 9
4 6 9 9 9 6 4 9 10 13 10 10 10 10 10 12 9 10 10 11 12 12 11 13 15 13 14 14 13 11 8 10 8 11 16 18 16 12 10 9 10 8 8 9 7 7 6 7 8
1 1 5 8 5 7 6 10 15 10 7 10 7 3 3 4 4 4 5 6 8 10 11 13 14 14 14 13 12 9 7 8 7 10 12 15 15 13 7 8 7 5 6 5 7 8 7 9 9
1 3 7 9 6 7 8 10 13 5 5 6 2 6 8 8 9 8 9 8 8 5 7 9 11 13 15 13 10 9 9 10 7 8 9 11 12 12 7 8 8 7 7 8 10 9 8 10 11
7 6 6 8 6 7 9 11 13 7 3 1 6 7 7 8 7 7 9 9 9 9 8 4 3 7 8 7 5 5 6 8 6 7 8 10 10 11 9 10 10 8 8 9 8 10 10 10 8
6 3 7 9 8 8 9 10 12 5 6 9 7 7 7 5 4 7 9 10 9 11 10 9 8 3 4 4 5 5 6 6 5 7 7 8 9 10 9 10 10 9 11 13 12 11 11 12 7
6 7 9 10 5 3 5 7 7 2 7 8 9 8 6 6 7 10 10 10 11 11 10 10 10 9 2 3 3 2 2 3 5 5 6 7 8 8 10 12 12 11 11 13 12 11 11 11 8
9 9 10 7 6 5 1 7 2 2 3 5 6 6 6 7 8 9 10 10 11 12 11 10 11 11 9 5 3 3 3 2 3 3 4 6 7 8 11 13 13 11 11 12 14 12 15 15 11
9 10 10 3 2 5 0 4 5 5 4 5 6 6 7 7 8 7 8 9 9 9 9 10 11 11 11 10 8 7 4 3 3 3 4 6 6 8 9 11 12 12 11 13 14 14 14 15 14
9 5 3 1 1 3 2 3 7 5 7 8 7 8 8 8 8 7 7 7 8 9 9 10 11 11 11 10 9 8 7 4 4 4 6 7 7 7 7 8 8 9 10 12 13 14 14 13 15
6 6 7 6 4 3 7 7 7 8 11 10 8 8 9 8 7 6 5 7 8 8 9 9 10 11 10 11 10 10 10 9 8 8 9 8 6 6 10 10 9 8 8 9 11 12 13 14 15
6 6 2 2 1 7 5 5 9 10 10 13 13 11 9 9 8 7 6 6 7 8 8 8 9 10 10 11 11 10 9 9 8 7 7 7 6 5 10 9 10 9 9 9 10 10 12 12 14
7 9 7 7 6 5 2 7 8 7 6 10 11 11 9 9 7 7 7 5 4 7 8 8 9 10 10 10 9 9 8 6 6 6 6 6 6 6 9 10 11 11 11 11 10 9 10 10 11
8 6 6 5 2 3 6 7 7 7 10 12 11 10 10 9 8 8 6 5 4 7 8 8 9 9 9 9 9 9 9 9 8 8 8 7 8 9 12 12 12 13 12 12 12 10 11 11 10
5 8 6 4 4 5 6 5 4 3 8 10 11 11 9 8 7 7 5 4 6 7 7 8 9 8 8 9 9 8 8 9 8 8 10 10 10 11 12 13 14 14 13 13 13 12 12 13 13
5 4 4 4 4 5 4 6 5 9 11 12 12 11 10 9 8 7 4 5 8 7 7 8 8 8 9 9 8 8 8 8 9 9 9 10 9 11 11 12 13 13 13 13 13 14 15 14 14
6 7 8 5 4 4 3 7 6 3 9 10 11 10 8 8 7 6 7 8 7 7 7 7 7 8 8 7 7 8 8 9 10 10 11 11 11 12 12 12 12 13 13 13 13 15 14 13 14
Wind_Direction
320 338 32 53 55 52 245 254 260 297 286 276 104 121 125 134 208 248 138 141 150 152 166 170 175 166 160 160 165 170 174 172 177 192 178 160 150 148 145 128 121 123 128 131 148 311 158 130 137
328 4 42 56 93 167 264 252 274 264 258 267 112 111 102 205 230 146 148 151 151 156 164 169 173 165 163 164 167 171 177 177 183 208 193 168 156 145 139 140 163 153 137 148 165 325 147 147 134
347 52 68 66 129 195 241 248 278 290 263 212 104 74 153 211 198 185 189 153 150 158 166 170 171 170 167 167 170 176 180 180 196 219 197 175 161 152 154 165 174 167 161 162 170 60 141 151 97
39 34 48 65 255 241 243 277 282 282 288 233 118 96 314 314 212 201 160 152 155 163 168 170 172 174 172 171 174 177 182 189 199 190 181 182 172 161 168 176 180 181 182 179 186 204 218 195 212
55 66 40 347 277 267 261 271 267 261 272 233 141 155 246 318 137 152 145 151 163 168 173 173 175 177 176 176 179 179 185 192 190 173 160 177 181 178 177 185 192 194 196 201 208 216 221 222 228
44 64 61 296 280 284 279 280 275 248 248 215 148 163 225 206 154 169 158 155 168 170 176 177 179 179 179 181 183 182 188 197 199 192 188 198 205 201 194 203 213 211 209 211 218 225 228 230 230
104 99 190 253 274 294 288 310 283 262 263 227 157 160 233 216 205 184 167 156 164 166 168 175 178 179 181 183 185 186 194 208 210 199 199 210 219 211 212 219 225 221 222 225 229 233 234 234 233
133 107 244 260 259 274 304 328 335 337 269 234 135 160 222 213 190 174 170 161 169 173 172 173 174 174 179 186 189 191 197 210 206 198 195 205 213 211 218 224 224 220 223 229 236 240 240 237 236
107 95 232 243 244 272 314 323 312 307 303 5 30 200 233 154 151 154 175 187 178 187 184 180 181 180 182 187 193 196 200 207 209 202 194 201 210 215 219 218 217 218 221 227 236 242 243 242 238
117 173 228 229 227 278 301 299 303 334 331 327 337 342 82 137 161 171 191 205 196 192 196 193 191 188 186 192 196 199 201 207 208 199 198 200 207 219 225 227 224 224 223 226 235 242 244 242 234
172 197 238 255 253 258 275 284 285 315 299 271 255 223 173 173 185 193 207 214 209 197 196 199 197 193 191 194 188 196 204 205 205 201 202 205 213 224 232 232 233 229 228 229 238 246 243 236 230
198 234 237 261 273 271 262 269 282 248 247 263 273 212 180 194 202 205 212 218 210 214 213 195 197 198 199 197 189 190 198 206 208 208 208 208 216 224 225 225 224 223 225 228 234 240 243 240 237
225 255 259 267 278 263 264 261 261 260 263 282 266 183 190 202 213 219 221 224 217 218 219 206 191 197 199 196 195 194 202 208 212 214 216 214 219 228 225 225 224 224 223 222 225 233 235 238 239
227 242 271 275 275 275 269 277 269 264 276 310 252 211 211 213 216 219 224 226 224 224 220 212 202 196 192 193 195 198 202 208 213 218 220 218 221 222 224 226 226 228 225 226 228 232 234 236 239
256 276 292 268 256 254 280 291 260 260 290 283 256 239 238 239 240 239 245 245 240 236 227 215 212 202 197 197 198 199 201 206 213 220 223 225 224 224 225 229 232 231 228 233 238 242 244 244 243
326 320 282 278 249 233 187 262 269 277 293 269 267 332 343 355 23 356 328 283 262 243 231 222 214 204 205 207 202 200 201 206 215 218 223 228 228 226 224 239 248 240 228 225 233 235 239 242 242
347 251 260 288 252 210 179 242 269 291 317 286 4 87 78 63 40 21 12 9 355 314 254 231 218 206 206 208 203 201 202 213 215 214 221 226 226 223 216 233 236 219 222 229 236 236 231 246 248
211 223 258 269 273 182 193 237 268 313 326 127 105 100 79 66 38 16 13 9 7 12 22 9 260 236 219 211 202 204 215 223 219 217 224 223 223 220 218 235 237 223 230 239 235 242 240 246 250
189 228 284 277 255 186 205 235 269 295 114 119 121 113 100 81 43 28 20 10 13 19 23 24 24 333 193 180 194 207 225 230 232 233 233 229 227 224 224 238 242 232 238 243 237 239 244 250 236
233 272 287 291 301 200 229 267 287 177 157 151 145 136 115 78 39 24 17 14 18 22 21 24 20 14 14 183 168 173 207 229 239 252 249 239 235 232 235 239 245 240 241 246 244 235 245 254 226
231 232 249 268 331 358 288 315 330 38 127 132 136 131 102 76 54 27 16 14 20 24 23 32 28 26 27 45 96 86 67 17 357 311 281 265 251 248 248 249 250 247 240 247 247 238 241 253 248
233 226 217 233 22 304 125 273 254 207 203 171 149 118 94 73 59 42 27 22 20 16 21 31 33 35 32 35 52 59 53 18 330 309 302 302 288 277 270 266 262 258 252 249 250 245 242 245 255
208 191 170 117 96 317 289 209 266 204 216 209 187 148 117 92 80 63 43 36 27 21 25 24 31 34 32 40 50 55 47 20 344 348 354 349 340 335 331 317 297 279 269 263 261 259 253 248 250
154 76 50 44 69 283 228 188 262 206 208 198 189 168 142 123 111 95 63 46 34 27 26 24 30 28 22 29 33 37 32 20 14 6 1 355 345 346 355 350 346 331 312 294 284 277 271 266 262
110 103 69 315 293 250 238 199 247 227 204 178 173 171 162 152 138 121 98 68 45 34 28 27 34 30 23 30 31 27 25 24 21 9 1 0 351 342 346 348 345 343 337 327 316 304 293 284 280
159 146 170 199 218 265 252 230 254 289 183 144 147 159 162 158 152 145 135 108 64 37 31 31 42 39 31 33 29 27 27 28 21 13 6 358 347 332 337 340 338 335 333 331 328 319 308 302 294
144 187 186 163 236 259 266 274 308 40 115 130 144 156 169 174 171 154 137 121 74 45 43 51 58 48 34 28 24 21 18 18 12 7 4 357 349 344 342 337 334 330 328 327 326 320 315 310 302
149 152 129 163 192 238 279 274 270 166 156 153 163 174 186 184 173 157 150 119 76 74 65 57 57 50 37 31 27 22 15 13 8 6 1 352 345 340 337 334 331 327 325 324 322 319 315 312 309
157 165 158 158 185 182 251 274 238 212 186 174 184 192 192 182 174 168 144 96 92 79 66 59 49 42 32 24 19 16 11 7 4 0 351 342 337 333 331 329 328 326 322 321 319 317 316 314 313
187 186 157 171 215 181 195 270 292 238 186 180 193 200 191 174 163 138 112 103 93 81 71 60 45 36 24 16 16 15 13 9 5 357 349 345 342 339 335 333 331 328 324 319 316 313 315 318 317
Height
1533 1530 1527 1528 1530 1538 1537 1528 1519 1513 1508 1504 1503 1503 1503 1505 1508 1513 1506 1503 1504 1504 1505 1507 1509 1511 1512 1513 1514 1514 1513 1513 1513 1514 1514 1514 1514 1513 1512 1512 1512 1512 1511 1509 1510 1510 1511 1511 1511
1532 1529 1529 1527 1535 1544 1538 1524 1517 1511 1507 1505 1505 1504 1504 1504 1505 1504 1503 1503 1503 1504 1505 1506 1508 1510 1511 1512 1513 1513 1512 1512 1512 1513 1514 1514 1513 1513 1512 1511 1511 1510 1509 1508 1509 1509 1510 1510 1510
1531 1529 1529 1530 1537 1541 1531 1518 1514 1509 1507 1505 1505 1504 1505 1505 1504 1503 1502 1502 1502 1503 1504 1505 1507 1509 1510 1511 1512 1512 1511 1511 1512 1513 1514 1514 1513 1512 1511 1510 1509 1509 1508 1508 1508 1508 1509 1509 1509
1531 1530 1531 1535 1534 1529 1523 1516 1511 1508 1506 1504 1503 1505 1505 1505 1504 1503 1502 1501 1502 1502 1503 1504 1506 1507 1508 1509 1510 1510 1510 1511 1512 1513 1514 1514 1513 1511 1510 1509 1509 1508 1508 1508 1508 1508 1508 1508 1507
1531 1530 1536 1540 1533 1524 1517 1512 1508 1505 1504 1503 1503 1504 1504 1505 1503 1503 1502 1501 1501 1502 1502 1503 1505 1506 1507 1507 1508 1509 1509 1509 1510 1511 1512 1512 1512 1511 1510 1509 1509 1508 1508 1508 1507 1507 1507 1506 1506
1532 1532 1544 1544 1534 1523 1515 1511 1506 1502 1502 1502 1502 1503 1502 1503 1502 1502 1502 1502 1502 1501 1502 1502 1504 1505 1505 1506 1507 1508 1508 1508 1508 1509 1510 1510 1510 1510 1509 1509 1508 1508 1508 1507 1507 1506 1505 1505 1505
1533 1536 1541 1538 1533 1525 1515 1510 1505 1501 1502 1502 1501 1502 1501 1501 1502 1501 1502 1502 1502 1501 1502 1502 1502 1503 1504 1505 1505 1506 1506 1507 1507 1508 1508 1509 1509 1508 1508 1508 1507 1507 1507 1506 1506 1505 1504 1503 1503
1532 1535 1536 1537 1531 1525 1515 1511 1507 1504 1502 1502 1500 1499 1499 1499 1500 1500 1501 1501 1501 1501 1501 1501 1502 1502 1502 1502 1503 1504 1505 1505 1506 1506 1507 1507 1507 1507 1507 1506 1506 1505 1505 1504 1504 1503 1501 1501 1501
1531 1538 1540 1533 1527 1521 1514 1511 1507 1506 1503 1501 1499 1498 1499 1499 1498 1498 1499 1500 1499 1499 1500 1500 1500 1501 1501 1501 1502 1503 1503 1504 1504 1505 1505 1505 1505 1505 1505 1504 1504 1503 1503 1502 1501 1500 1499 1499 1498
1529 1537 1532 1524 1520 1519 1514 1511 1508 1505 1502 1500 1499 1498 1497 1497 1497 1496 1497 1497 1497 1497 1498 1499 1499 1499 1500 1500 1501 1502 1502 1503 1503 1503 1503 1503 1503 1503 1503 1503 1502 1502 1500 1499 1498 1497 1496 1496 1495
1526 1528 1522 1518 1517 1516 1513 1509 1507 1505 1502 1499 1499 1497 1496 1496 1495 1495 1495 1495 1496 1497 1496 1496 1497 1498 1498 1499 1500 1500 1501 1501 1501 1501 1501 1501 1501 1501 1501 1501 1500 1499 1497 1496 1496 1494 1493 1493 1493
1523 1520 1518 1515 1513 1513 1511 1507 1504 1502 1501 1499 1498 1496 1494 1494 1494 1493 1493 1493 1494 1494 1494 1494 1495 1496 1496 1497 1498 1499 1499 1499 1499 1499 1499 1499 1499 1499 1499 1498 1498 1496 1495 1494 1493 1492 1491 1490 1490
1520 1517 1515 1513 1511 1509 1507 1504 1501 1497 1496 1495 1494 1493 1492 1491 1491 1491 1492 1492 1492 1492 1492 1492 1492 1493 1494 1494 1495 1496 1496 1496 1497 1497 1497 1497 1497 1497 1497 1496 1495 1494 1493 1492 1492 1490 1489 1488 1487
1515 1513 1511 1509 1507 1505 1504 1500 1498 1492 1493 1492 1492 1490 1489 1489 1489 1489 1488 1488 1489 1489 1489 1490 1490 1490 1490 1490 1491 1492 1493 1494 1494 1495 1495 1495 1495 1495 1494 1493 1492 1491 1490 1490 1489 1487 1486 1484 1483
1512 1513 1510 1505 1502 1501 1502 1499 1493 1489 1490 1488 1488 1488 1487 1486 1486 1486 1486 1486 1487 1487 1487 1487 1487 1487 1487 1487 1488 1488 1490 1491 1492 1493 1493 1493 1492 1491 1490 1489 1488 1487 1488 1487 1486 1484 1482 1480 1479
1511 1513 1515 1504 1499 1497 1504 1504 1488 1487 1486 1484 1484 1485 1484 1484 1485 1484 1484 1484 1484 1484 1484 1484 1484 1484 1484 1485 1485 1486 1487 1488 1489 1490 1490 1490 1489 1488 1488 1487 1486 1485 1484 1483 1481 1479 1477 1475 1473
1515 1519 1516 1507 1496 1496 1500 1499 1484 1484 1484 1483 1484 1484 1484 1483 1483 1482 1481 1481 1480 1479 1478 1478 1479 1480 1481 1482 1483 1483 1485 1485 1486 1486 1486 1486 1486 1485 1485 1483 1482 1481 1479 1477 1475 1473 1471 1469 1467
1519 1518 1515 1510 1496 1495 1497 1494 1484 1482 1483 1483 1484 1484 1484 1483 1482 1482 1481 1479 1477 1475 1474 1474 1475 1476 1478 1480 1481 1481 1481 1482 1482 1482 1482 1482 1482 1481 1479 1478 1476 1475 1473 1471 1469 1467 1466 1463 1461
1509 1511 1513 1505 1492 1492 1493 1491 1485 1482 1482 1483 1484 1484 1484 1484 1483 1482 1480 1479 1476 1474 1473 1472 1472 1472 1473 1475 1477 1478 1478 1478 1479 1479 1479 1479 1478 1476 1474 1472 1470 1468 1466 1463 1461 1460 1458 1456 1455
1508 1512 1511 1501 1490 1489 1489 1489 1484 1481 1482 1482 1483 1484 1484 1483 1483 1482 1481 1480 1478 1476 1474 1473 1472 1471 1471 1472 1473 1475 1476 1476 1477 1477 1476 1475 1473 1471 1469 1466 1464 1462 1459 1456 1454 1453 1450 1448 1449
1507 1511 1509 1502 1494 1490 1491 1493 1486 1485 1483 1484 1483 1483 1483 1483 1483 1483 1482 1481 1479 1477 1475 1474 1473 1472 1471 1471 1471 1472 1472 1473 1473 1473 1471 1470 1468 1465 1463 1460 1458 1455 1453 1450 1449 1447 1444 1441 1440
1506 1498 1499 1497 1502 1504 1498 1508 1491 1487 1485 1484 1483 1483 1483 1484 1484 1484 1483 1482 1481 1479 1478 1477 1476 1474 1472 1471 1471 1471 1470 1470 1469 1468 1466 1464 1462 1460 1457 1455 1452 1449 1446 1444 1442 1440 1437 1434 1431
1496 1491 1493 1495 1500 1505 1503 1506 1496 1488 1487 1484 1482 1482 1484 1485 1485 1485 1485 1484 1483 1482 1481 1480 1478 1476 1474 1473 1472 1471 1470 1469 1467 1466 1464 1461 1459 1457 1454 1451 1448 1444 1441 1438 1436 1434 1431 1428 1424
1488 1493 1498 1505 1509 1514 1502 1507 1495 1487 1479 1479 1480 1481 1483 1485 1486 1486 1486 1485 1484 1483 1482 1481 1479 1478 1476 1475 1473 1471 1470 1468 1467 1464 1462 1460 1457 1455 1451 1448 1444 1441 1437 1434 1431 1428 1425 1422 1418
1489 1503 1515 1516 1519 1513 1495 1498 1487 1470 1465 1468 1474 1478 1482 1484 1485 1486 1486 1486 1485 1484 1483 1481 1480 1479 1477 1475 1474 1472 1471 1469 1466 1464 1461 1458 1455 1452 1448 1445 1441 1437 1434 1430 1427 1423 1419 1416 1412
1490 1497 1512 1517 1514 1504 1490 1493 1474 1465 1461 1466 1471 1476 1479 1482 1484 1485 1485 1485 1484 1483 1482 1481 1480 1479 1478 1476 1474 1473 1471 1468 1466 1463 1460 1457 1453 1449 1445 1441 1437 1433 1430 1426 1422 1417 1414 1410 1405
1490 1494 1494 1503 1500 1502 1496 1484 1469 1465 1464 1467 1472 1475 1477 1480 1482 1483 1483 1484 1484 1483 1482 1481 1480 1479 1477 1476 1474 1472 1469 1466 1464 1461 1458 1454 1450 1446 1442 1437 1433 1428 1424 1420 1415 1410 1406 1402 1398
1479 1485 1497 1502 1505 1506 1495 1486 1478 1471 1471 1470 1472 1474 1476 1478 1480 1482 1483 1483 1483 1482 1481 1481 1480 1478 1476 1474 1472 1470 1467 1464 1461 1458 1454 1451 1446 1442 1437 1432 1427 1423 1418 1413 1408 1403 1399 1395 1390
1483 1486 1489 1497 1500 1504 1500 1489 1468 1467 1467 1468 1470 1471 1473 1476 1478 1480 1482 1481 1481 1480 1480 1479 1478 1477 1475 1472 1469 1467 1464 1461 1458 1454 1450 1445 1441 1436 1431 1426 1421 1417 1412 1408 1403 1398 1393 1388 1383
1477 1479 1486 1495 1496 1499 1501 1491 1463 1462 1464 1465 1467 1469 1472 1475 1478 1479 1479 1479 1478 1478 1478 1477 1476 1474 1472 1469 1467 1464 1460 1457 1453 1448 1444 1440 1435 1430 1426 1420 1415 1410 1405 1401 1397 1392 1387 1382 1377